sat.trackr.live / text

‹ back to catalog

ZHUQUE-2E DEB

NORAD 69632 · 2026-128G

DEBRIS UNKNOWN UNKNOWN

§ Identity

Operator
Country
PRC
Launch date
2026-06-09
Launch site
JSC
Launch vehicle
Mass (kg)
RCS (m²)

External: N2YO · Heavens-Above · Gunter

§ Orbital elements

Epoch: 2026-06-25T14:50:48.633216Z

Period
88.20 min
Inclination
54.5177°
Eccentricity
0.0024438
Mean motion
16.32690987 rev/d
Perigee alt
169.3 km
Apogee alt
201.4 km
Semi-major
6,563.5 km
B*
1.6521e-3
RAAN
261.2158°
Arg perigee
21.8647°
Mean anomaly
338.3453°
Rev number
255

§ Raw data

ZHUQUE-2E DEB1 69632U 26128G   26176.61861844  .11202207  12348-4  16521-2 0  99992 69632  54.5177 261.2158 0024438  21.8647 338.3453 16.32690987  2553

JSON: /api/v1/satellites/69632 · /tle

For live sub-satellite position, see the globe view (requires WebGL).

§ Visibility from observer

Set your observer location to see the next 7 days of passes ≥ 10°. The values pass through the URL so the page stays shareable.

No JS? Fill the form by hand. The geolocation button needs JavaScript.